This demonstration page uses our WeatherBlox Daily Observations layout. Learn more.

Left ArrowRight Arrow

36.17497, -115.13722

Hourly Observations for August 15, 2020

Temp ( °F °C ) Dew Point ( °F °C ) Humidity (%) Winds ( mph kmh ) Pressure ( in mb ) Visibility ( mi km ) Precip ( " mm )
12:53 am 00:53 Clear 94 34.4 44 6.7 18 18 W 5 7 29.82 1010 10 16 N/A
1:53 am 01:53 Clear 90 32.2 45 7.2 21 21 WNW 7 11 29.81 1010 10 16 N/A
2:53 am 02:53 Clear 91 32.8 43 6.1 19 19 WNW 8 13 29.81 1010 10 16 N/A
3:53 am 03:53 Clear 89 31.7 43 6.1 20 20 N N/A 29.82 1010 10 16 N/A
4:53 am 04:53 Clear 90 32.2 41 5 18 18 NW 6 9 29.83 1010 10 16 N/A
5:53 am 05:53 Clear 89 31.7 41 5 19 19 NNW 12 19 29.85 1011 10 16 N/A
6:53 am 06:53 Sunny 90 32.2 41 5 18 18 NW 8 13 29.87 1012 10 16 N/A
7:53 am 07:53 Sunny 92 33.3 43 6.1 18 18 SW 3 6 29.89 1012 10 16 N/A
8:53 am 08:53 Sunny 99 37.2 43 6.1 15 15 N N/A 29.90 1013 10 16 N/A
9:53 am 09:53 Sunny 102 38.9 43 6.1 13 13 VRB 5 7 29.90 1013 10 16 N/A
10:53 am 10:53 Sunny 105 40.6 37 2.8 10 10 SE 7 11 29.90 1012 10 16 N/A
11:53 am 11:53 Sunny 109 42.8 35 1.7 8 8 E 8 13 29.88 1012 10 16 N/A
12:53 pm 12:53 Sunny 110 43.3 37 2.8 8 8 ENE 7 11 29.86 1011 10 16 N/A
1:53 pm 13:53 Sunny 112 44.4 36 2.2 7 7 ENE 7 11 29.84 1011 10 16 N/A
2:53 pm 14:53 Sunny 112 44.4 36 2.2 7 7 SW 6 9 29.81 1010 10 16 N/A
3:53 pm 15:53 Sunny 114 45.6 36 2.2 7 7 VRB 3 6 29.78 1009 10 16 N/A
4:53 pm 16:53 Sunny 112 44.4 37 2.8 8 8 SE 3 6 29.77 1008 10 16 N/A
5:53 pm 17:53 Sunny 111 43.9 36 2.2 8 8 SSE 5 7 29.76 1008 10 16 N/A
6:53 pm 18:53 Sunny 111 43.9 36 2.2 8 8 N N/A 29.76 1008 10 16 N/A
7:53 pm 19:53 Clear 107 41.7 41 5 11 11 NW 3 6 29.77 1008 10 16 N/A
8:53 pm 20:53 Clear 103 39.4 43 6.1 13 13 WNW 6 9 29.78 1008 10 16 N/A
9:53 pm 21:53 Clear 99 37.2 43 6.1 15 15 NW 8 13 29.79 1009 10 16 N/A
10:53 pm 22:53 Clear 97 36.1 41 5 14 14 NW 7 11 29.79 1009 10 16 N/A
11:53 pm 23:53 Clear 99 37.2 38 3.3 12 12 NW 12 19 29.79 1009 10 16 N/A

Powered by AerisWeather